ARIANE 5 R/B, 42693

Orbit data source: Space-Track

ARIANE 5 R/B, 42693 is space debris in HEO originally from a launch on Thu, 04 May 2017 UTC launched from the French Guiana (FRGUI). Debris objects in space refer to the collection of defunct objects orbiting the Earth. Examples of debris include non-operational satellites, rocket bodies, and fragments generated from explosions, collisions, or faulty payload assembly.

Loading next visibility...
Identifier
42693, 2017-023C
Orbit
HEO
Country
Flag of FRFR
Related business
Manufacturer
Airbus Safran
Mission
Spacecraft
Bus & Motor
ESC-A, Unknown motor
Mass
~5,000 kg wet, ~5,000 kg dry
Launch date (UTC)
2017-05-04 (9 years ago)
Launch vehicle
Unknown
Launch site
French Guiana (FRGUI)
Object type
Payload
Rocket body
Debris
Shape & HBR
Cyl + 1 Nozzle, 3.5 m
Radar Cross Section
41.627 m², Large (>1 m²)

Expand to show TLE details & history
Last TLE update: 18 hours ago

TLE from 18 hours ago
0 ARIANE 5 R/B
1 42693U 17023C   25308.30055796  .00007813  00000-0  14411-2 0  9992
2 42693   3.5464 116.6463 7158342 313.4574   5.8703  2.44611369 72695
Epoch: 2025-11-04T07:12Z
TLE epoch observation values (Epoch: 2025-11-04T07:12:48.207Z)
Latitude
-0.00014°
Longitude
-34.81938°
Altitude
1,238.125 km
Speed
9.355 km/s
True Right ascension
07h 48m 41s
True Declination
0° 00' 01"
Sunlit
Object was in daylight at epoch
Visualization orbit readout
Latitude
Unknown
Longitude
Unknown
Altitude
Unknown
Speed
Unknown
Apparent Right ascension
Unknown
Apparent Declination
Unknown
Sunlit
N/A
Visualization observer readout
Local Sidereal Time
21:15:53
Azimuth
Unknown
Elevation
Unknown
Doppler factor
Unknown
Orbital elements
Apogee altitude
33,554.64 km
Perigee altitude
235.281 km
Semi-major axis
23,273.098 km
Eccentricity
0.71583
Inclination
3.5464°
RAAN
116.6463°
Arg. of periapsis
313.4574°
True anomaly
46.18506°
Mean anomaly
5.8703°
Eccentric anomaly
19.68779°
Mean motion
0.61131 °/min
Orbital period
588.9 mins
BSTAR
0.0014411
Loading maneuver chart data...
Computing Atmospheric mass density...
Loading historical data...
Loading historical data...
Loading historical data...
Loading historical data...
Loading historical data...
Loading historical data...
Loading historical data...
Other satellites on launch #23 in the year 2017 (2017-05-04 UTC)

Documentation

Showing up to 5 results
|